This is the latest recevied weather packets stored in our database for station/object AD4CG. If no packets are shown the sender has not sent any weather packets the latest 10 day(s).
| Time | Temp. | Humidity | Pressure | Rain* | Wind** | Luminosity | Snow |
|---|---|---|---|---|---|---|---|
| 1777551361 | 16.11° C | 100% | 1010.2 hPa | 0 mm | - | - | - |
| 1777547295 | 16.11° C | 100% | 1009.8 hPa | 0 mm | - | - | - |
| 1777546041 | 16.67° C | 100% | 1009.1 hPa | 0 mm | - | - | - |
| 1777545101 | 16.67° C | 100% | 1009.5 hPa | 0 mm | - | - | - |
| 1777544784 | 16.67° C | 100% | 1009.1 hPa | 0 mm | - | - | - |
| 1777544156 | 16.67° C | 100% | 1009.5 hPa | 0 mm | - | - | - |
| 1777542905 | 16.67° C | 100% | 1009.1 hPa | 0 mm | - | - | - |
| 1777541654 | 16.67° C | 100% | 1009.1 hPa | 0 mm | - | - | - |
| 1777540712 | 16.67° C | 100% | 1009.1 hPa | 0 mm | - | - | - |
| 1777539144 | 16.67° C | 100% | 1009.1 hPa | 0 mm | - | - | - |
| 1777538828 | 16.67° C | 100% | 1008.8 hPa | 0 mm | - | - | - |
| 1777538200 | 16.67° C | 100% | 1008.8 hPa | 0 mm | - | - | - |
| 1777535072 | 16.11° C | 100% | 1008.8 hPa | 0 mm | - | - | - |
| 1777530690 | 17.22° C | 100% | 1008.8 hPa | 0 mm | - | - | - |
| 1777529124 | 17.22° C | 100% | 1009.5 hPa | 0.51 mm | - | - | - |
| 1777528807 | 17.22° C | 100% | 1009.8 hPa | 1.02 mm | - | - | - |
| 1777525681 | 17.78° C | 100% | 1010.8 hPa | 3.56 mm | - | - | - |
| 1777525049 | 18.33° C | 100% | 1010.2 hPa | 2.29 mm | - | - | - |
| 1777524103 | 20.56° C | 100% | 1009.8 hPa | 0 mm | - | - | - |
| 1777522538 | 21.11° C | 100% | 1008.5 hPa | 0 mm | - | - | - |
| 1777521597 | 20.56° C | 100% | 1008.1 hPa | 0 mm | - | - | - |
| 1777520031 | 20.56° C | 100% | 1008.5 hPa | 0 mm | - | - | - |
| 1777519090 | 20.56° C | 100% | 1008.8 hPa | 0 mm | - | - | - |
| 1777517524 | 20.56° C | 100% | 1008.8 hPa | 0 mm | - | - | - |
| 1777515647 | 20.56° C | 100% | 1008.8 hPa | 0 mm | - | - | - |
* Rain latest hour (hover to see other rain measurements)
** Current wind speed in m/s (hover to see current wind gust speed)